Location: Degerfors
(59.2294°N, 14.4406°E)
Time: 23:20:47
(UTC+01:00)

ISS - Pass Details

Date: 04 December 2021
Orbit: 413 x 422 km, 51.6° (Epoch: 23 January)

Event Time Altitude Azimuth Distance (km) Brightness Sun altitude
Rises 17:51:22 0° 264° (W) 2,386 1.7 -18.9°
Reaches altitude 10° 17:54:21 10° 235° (SW) 1,515 0.1 -19.3°
Maximum altitude 17:55:59 13° 207° (SSW) 1,345 -0.7 -19.5°
Drops below altitude 10° 17:57:36 10° 178° (S) 1,509 -0.8 -19.7°
Enters shadow 17:58:35 - 165° (SSE) 1,742 -0.7 -19.8°
